EN

Hourly Weather Burlats'ke

Today, 7 May, Friday

Time Temperature Precipitation Wind Pressure Humidity
00:00 +11°C° 0 mm 3 mps 745 mmHg 71%
01:00 +10°C° 0 mm 3 mps 746 mmHg 78%
02:00 +10°C° 0 mm 3 mps 746 mmHg 84%
03:00 +10°C° 0 mm 3 mps 746 mmHg 86%
04:00 +10°C° 0 mm 3 mps 747 mmHg 87%
05:00 +10°C° 0 mm 3 mps 747 mmHg 89%
06:00 +11°C° 0 mm 3 mps 747 mmHg 79%
07:00 +12°C° 0 mm 4 mps 748 mmHg 69%
08:00 +13°C° 0 mm 4 mps 748 mmHg 59%
09:00 +14°C° 0 mm 4 mps 748 mmHg 53%
10:00 +17°C° 0 mm 3 mps 748 mmHg 47%
11:00 +18°C° 0 mm 3 mps 749 mmHg 41%
12:00 +19°C° 0 mm 2 mps 748 mmHg 39%
13:00 +20°C° 0 mm 1 mps 748 mmHg 36%
14:00 +21°C° 0 mm 1 mps 748 mmHg 34%
15:00 +21°C° 0 mm 1 mps 748 mmHg 34%
16:00 +21°C° 0 mm 1 mps 748 mmHg 35%
17:00 +21°C° 0 mm 1 mps 747 mmHg 36%
18:00 +18°C° 0 mm 2 mps 748 mmHg 45%
19:00 +16°C° 0 mm 2 mps 748 mmHg 54%
20:00 +13°C° 0 mm 3 mps 748 mmHg 63%
21:00 +12°C° 0 mm 3 mps 748 mmHg 67%
22:00 +12°C° 0 mm 3 mps 747 mmHg 72%
23:00 +12°C° 0 mm 3 mps 747 mmHg 77%

Tomorrow, 8 May, Saturday

Time Temperature Precipitation Wind Pressure Humidity
00:00 +12°C° 0 mm 3 mps 747 mmHg 76%
01:00 +11°C° 0 mm 3 mps 746 mmHg 75%
02:00 +11°C° 0 mm 3 mps 746 mmHg 74%
03:00 +11°C° 0 mm 4 mps 746 mmHg 75%
04:00 +11°C° 0 mm 4 mps 746 mmHg 76%
05:00 +11°C° 0 mm 4 mps 746 mmHg 78%
06:00 +13°C° 0 mm 4 mps 746 mmHg 74%
07:00 +14°C° 0 mm 5 mps 745 mmHg 71%
08:00 +16°C° 0 mm 6 mps 745 mmHg 67%
09:00 +17°C° 0 mm 6 mps 745 mmHg 64%
10:00 +19°C° 0 mm 6 mps 745 mmHg 61%
11:00 +20°C° 0 mm 6 mps 745 mmHg 57%
12:00 +20°C° 0 mm 6 mps 744 mmHg 55%
13:00 +21°C° 0 mm 6 mps 744 mmHg 53%
14:00 +22°C° 0 mm 6 mps 744 mmHg 51%
15:00 +19°C° 0.1 mm 6 mps 745 mmHg 61%
16:00 +15°C° 0.1 mm 6 mps 745 mmHg 72%
17:00 +11°C° 0.1 mm 6 mps 745 mmHg 82%
18:00 +11°C° 0.3 mm 6 mps 746 mmHg 85%
19:00 +10°C° 0.3 mm 5 mps 746 mmHg 87%
20:00 +10°C° 0.3 mm 4 mps 747 mmHg 89%
21:00 +9°C° 1.4 mm 5 mps 747 mmHg 89%
22:00 +8°C° 1.4 mm 6 mps 747 mmHg 89%
23:00 +7°C° 1.4 mm 6 mps 747 mmHg 90%

Day after tomorrow, 9 May, Sunday

Time Temperature Precipitation Wind Pressure Humidity
00:00 +7°C° 0.9 mm 6 mps 748 mmHg 89%
01:00 +5°C° 0.9 mm 6 mps 748 mmHg 87%
02:00 +5°C° 0.9 mm 6 mps 748 mmHg 86%
03:00 +6°C° 0.3 mm 5 mps 748 mmHg 87%
04:00 +6°C° 0.3 mm 5 mps 748 mmHg 88%
05:00 +6°C° 0.3 mm 4 mps 749 mmHg 89%
06:00 +6°C° 0.1 mm 5 mps 749 mmHg 83%
07:00 +6°C° 0.1 mm 7 mps 749 mmHg 77%
08:00 +7°C° 0.1 mm 8 mps 750 mmHg 70%
09:00 +7°C° 0 mm 8 mps 750 mmHg 65%
10:00 +9°C° 0 mm 8 mps 750 mmHg 59%
11:00 +10°C° 0 mm 8 mps 751 mmHg 53%
12:00 +11°C° 0 mm 8 mps 751 mmHg 49%
13:00 +12°C° 0 mm 8 mps 751 mmHg 46%
14:00 +12°C° 0 mm 8 mps 751 mmHg 42%
15:00 +12°C° 0 mm 7 mps 752 mmHg 45%
16:00 +12°C° 0 mm 7 mps 752 mmHg 47%
17:00 +13°C° 0 mm 6 mps 752 mmHg 49%
18:00 +10°C° 0 mm 5 mps 753 mmHg 54%
19:00 +9°C° 0 mm 5 mps 754 mmHg 59%
20:00 +7°C° 0 mm 4 mps 754 mmHg 64%
21:00 +7°C° 0 mm 4 mps 755 mmHg 68%
22:00 +6°C° 0 mm 4 mps 755 mmHg 71%
23:00 +5°C° 0 mm 4 mps 755 mmHg 75%

10 May, Monday

Time Temperature Precipitation Wind Pressure Humidity
00:00 +5°C° 0 mm 4 mps 755 mmHg 76%
01:00 +4°C° 0 mm 4 mps 755 mmHg 76%
02:00 +4°C° 0 mm 4 mps 756 mmHg 77%
03:00 +4°C° 0 mm 4 mps 756 mmHg 77%
04:00 +4°C° 0 mm 4 mps 756 mmHg 77%
05:00 +4°C° 0 mm 4 mps 756 mmHg 77%
06:00 +6°C° 0 mm 5 mps 756 mmHg 68%
07:00 +8°C° 0 mm 7 mps 756 mmHg 60%
08:00 +10°C° 0 mm 8 mps 756 mmHg 51%
09:00 +11°C° 0 mm 8 mps 756 mmHg 48%
10:00 +12°C° 0 mm 8 mps 756 mmHg 44%
11:00 +13°C° 0 mm 8 mps 755 mmHg 41%
12:00 +13°C° 0 mm 8 mps 755 mmHg 41%
13:00 +15°C° 0 mm 8 mps 755 mmHg 41%
14:00 +15°C° 0 mm 8 mps 754 mmHg 40%
15:00 +13°C° 0 mm 8 mps 754 mmHg 44%
16:00 +14°C° 0 mm 7 mps 754 mmHg 48%
17:00 +14°C° 0 mm 7 mps 754 mmHg 51%
18:00 +12°C° 0 mm 7 mps 754 mmHg 52%
19:00 +11°C° 0 mm 7 mps 754 mmHg 53%
20:00 +11°C° 0 mm 7 mps 754 mmHg 54%
21:00 +11°C° 0 mm 7 mps 753 mmHg 54%
22:00 +11°C° 0 mm 7 mps 753 mmHg 55%
23:00 +11°C° 0 mm 7 mps 752 mmHg 56%

11 May, Tuesday

Time Temperature Precipitation Wind Pressure Humidity
00:00 +10°C° 0 mm 7 mps 752 mmHg 58%
01:00 +10°C° 0 mm 7 mps 752 mmHg 61%
02:00 +9°C° 0 mm 7 mps 752 mmHg 63%
03:00 +9°C° 0.1 mm 7 mps 751 mmHg 67%
04:00 +9°C° 0.1 mm 7 mps 751 mmHg 72%
05:00 +8°C° 0.1 mm 7 mps 751 mmHg 76%
06:00 +8°C° 0.1 mm 7 mps 751 mmHg 79%
07:00 +9°C° 0.1 mm 7 mps 751 mmHg 81%
08:00 +9°C° 0.1 mm 7 mps 751 mmHg 84%
09:00 +9°C° 0 mm 7 mps 751 mmHg 84%
10:00 +10°C° 0 mm 7 mps 751 mmHg 84%
11:00 +10°C° 0 mm 7 mps 751 mmHg 84%
12:00 +11°C° 0 mm 7 mps 751 mmHg 79%
13:00 +12°C° 0 mm 7 mps 750 mmHg 74%
14:00 +14°C° 0 mm 7 mps 750 mmHg 69%
15:00 +12°C° 0.1 mm 7 mps 750 mmHg 68%
16:00 +12°C° 0.1 mm 7 mps 750 mmHg 68%
17:00 +12°C° 0.1 mm 7 mps 749 mmHg 67%
18:00 +11°C° 0 mm 6 mps 749 mmHg 70%
19:00 +9°C° 0 mm 6 mps 749 mmHg 73%
20:00 +8°C° 0 mm 5 mps 749 mmHg 76%
21:00 +8°C° 0 mm 5 mps 749 mmHg 76%
22:00 +7°C° 0 mm 5 mps 749 mmHg 76%
23:00 +7°C° 0 mm 5 mps 748 mmHg 77%

12 May, Wednesday

Time Temperature Precipitation Wind Pressure Humidity
00:00 +7°C° 0.3 mm 5 mps 748 mmHg 81%
01:00 +7°C° 0.3 mm 6 mps 748 mmHg 86%
02:00 +7°C° 0.3 mm 6 mps 747 mmHg 90%
03:00 +7°C° 0.6 mm 6 mps 748 mmHg 90%
04:00 +7°C° 0.6 mm 6 mps 748 mmHg 90%
05:00 +7°C° 0.6 mm 6 mps 748 mmHg 90%
06:00 +8°C° 0.3 mm 6 mps 749 mmHg 87%
07:00 +9°C° 0.3 mm 7 mps 749 mmHg 84%
08:00 +11°C° 0.3 mm 8 mps 750 mmHg 81%
09:00 +11°C° 0.2 mm 8 mps 750 mmHg 77%
10:00 +12°C° 0.2 mm 8 mps 750 mmHg 74%
11:00 +13°C° 0.2 mm 8 mps 750 mmHg 71%
12:00 +14°C° 0 mm 7 mps 750 mmHg 69%
13:00 +14°C° 0 mm 7 mps 750 mmHg 67%
14:00 +15°C° 0 mm 7 mps 749 mmHg 65%
15:00 +14°C° 0 mm 6 mps 749 mmHg 67%
16:00 +14°C° 0 mm 5 mps 749 mmHg 69%
17:00 +14°C° 0 mm 4 mps 749 mmHg 72%
18:00 +13°C° 0.2 mm 3 mps 749 mmHg 78%
19:00 +12°C° 0.2 mm 3 mps 748 mmHg 84%
20:00 +12°C° 0.2 mm 2 mps 748 mmHg 90%
21:00 +12°C° 0 mm 2 mps 748 mmHg 90%
22:00 +12°C° 0 mm 2 mps 747 mmHg 91%
23:00 +12°C° 0 mm 2 mps 747 mmHg 92%
Show more

We Need Your Consent

Meteoprog and our Service Providers may store and access personal data such as cookies, device identifiers or other similar technologies on your device and process such data to personalise content and ads, as well as provide social media features and to analyse the traffic.

  • Store and/or access information on your device

    Cookies, device identifiers or other information can be stored or accessed on your device for the purposes indicated above.

  • Personalised ads and content, ad and content measurement, audience insights, and products development

    Ads and content can be personalised based on a profile. More data can be added to better personalise ads and content. Ad and content performance can be measured. Insights about the audience who saw the ads and content can be derived. Such data can be used to develop or improve user’s experience, systems and software.

By clicking ‘I Agree’ you will allow the use of indicated cookies, device identifiers, web beacons or other similar technologies. Your settings can be changed in the browser on your device.

For certain purposes, legitimate interests may be relied on, rather than consent. You can read more about this in our Privacy and Cookie Policy.